User: anonymous   Login
Location: Unspecified
(0.0000°N, 0.0000°E)
Time: 07:48:00
(UTC+02:00)
Language:

Cosmos 1315 Rocket - Orbit

View from above orbital plane
View from above orbital plane
View from above satellite
View from above satellite

Ground track
Ground track

The orbit data is extracted from the following two-line orbital elements,

1 12904U 81103B   15146.21887369  .00001393  00000-0  97920-4 0  9997
2 12904 081.1790 054.9141 0029717 023.5457 336.7118 15.04131402379582
Epoch (UTC): 26 May 2015 05:15:10
Eccentricity: 0.0029717
inclination: 81.1790°
perigee height: 533 km
apogee height: 575 km
right ascension of ascending node: 54.9141°
argument of perigee: 23.5457°
revolutions per day: 15.04131402
mean anomaly at epoch: 336.7118°
orbit number at epoch: 37958

The dashed part of the orbit path shows where the satellite is in the earth's shadow,  

DLR